[[{"header":{"parameterUnit":"m.s-1","parameterCategory":1,"la1":30.2991,"la2":30.254,"lo1":-89.0895,"lo2":-89.0444,"dy":0.0017,"dx":0.0017,"nx":28,"ny":28,"refTime":"2025-08-23T09:00:00:Z","depth":0,"parameterNumber":2,"parameterNumberName":"U-component_of_WINDS"},"data":[0,0,0,0,0,0,0,0,0,0,0,0,0,0,0,0,0,0,0,0,0,0,0,0,0,0,0,0,0,0,0,0,0,0,0,0,0,0,0,0,0,0,0,0,0,0,0,0,0,0,0,0,0,0,0,0,0,0,0.1387,0.1387,0,0.1319,0.1319,0.1318,0.133,0.1331,0.1332,0.1333,0.126,0.1257,0.1254,0,0,0,0,0,0,0,0,0,0,0,0,0,0.1525,0.1523,0.1388,0.1387,0.1386,0.1319,0.1318,0.1318,0.1329,0.1331,0.1332,0.1334,0.1261,0.1257,0.1254,0,0,0,0,0,0,0,0,0,0,0,0,0,0.1462,0.1522,0.1388,0.1384,0.1383,0.132,0.1318,0.1317,0.1329,0.1331,0.1333,0.1334,0.1262,0.1258,0.1253,0.1188,0,0,0.1239,0.1237,0,0,0,0,0,0,0,0,0.1465,0.1457,0.1385,0.1384,0.1383,0.1335,0.134,0.1274,0.1329,0.1349,0.1333,0.1335,0.1283,0.1277,0.126,0.1185,0.1182,0.1239,0.1236,0.1234,0.1232,0,0,0,0,0,0,0,0.147,0.146,0.136,0.1384,0.1383,0.1385,0.1378,0.1328,0.1307,0.1348,0.1348,0.134,0.1283,0.1264,0.1258,0.1181,0.1239,0.1235,0.1232,0.123,0.1049,0.1047,0,0,0,0,0,0,0.1476,0.1463,0.1363,0.1358,0.143,0.1381,0.1373,0.1348,0.1307,0.1303,0.1339,0.1341,0.1271,0.1264,0.1256,0.1177,0.1234,0.1229,0.1227,0.1051,0.1048,0.1046,0,0,0,0,0,0,0.1479,0.1467,0.1365,0.1411,0.1398,0.1376,0.1349,0.1346,0.1328,0.1301,0.1297,0.1324,0.1273,0.1262,0.1205,0.1175,0.1227,0.1223,0.1053,0.105,0.1047,0.1019,0,0,0,0,0,0,0.1483,0.1468,0.1444,0.141,0.1396,0.1317,0.1347,0.1343,0.132,0.1323,0.1286,0.1282,0.1273,0.1212,0.1201,0.1169,0.122,0.1056,0.1052,0.1048,0.1022,0.1015,0.1009,0,0,0,0,0,0.1488,0.1438,0.1442,0.143,0.1365,0.1315,0.1306,0.1299,0.1318,0.1293,0.1275,0.1283,0.118,0.1206,0.1193,0.116,0.1058,0.1053,0.1048,0.1025,0.1017,0.1009,0,0,0,0,0,0,0.1466,0.1433,0.1438,0.1376,0.1348,0.1317,0.1285,0.129,0.1255,0.1259,0.125,0.1241,0.1183,0.1166,0.1196,0.1095,0.1121,0.1114,0.1108,0.11,0.1093,0.1098,0.1216,0,0,0,0,0,0.1455,0.1417,0.139,0.1338,0.1324,0.1307,0.1285,0.1282,0.1252,0.124,0.1218,0.1188,0.115,0.1124,0.1087,0.1021,0.1012,0.0991,0.0985,0.0979,0.0973,0.0936,0.0926,0.1031,0.1031,0.1031,0,0,0.143,0.1407,0.1384,0.1333,0.1311,0.1272,0.1297,0.1254,0.1225,0.1233,0.1178,0.1161,0.1127,0.1065,0.1037,0.1049,0.0942,0.0973,0.0969,0.0966,0.093,0.092,0.0912,0.1028,0.1028,0.1029,0,0,0.1364,0.1344,0.1298,0.1276,0.1243,0.1232,0.1221,0.1189,0.1179,0.1124,0.1129,0.1093,0.1026,0.1002,0.0981,0.0906,0.0911,0.0894,0.0859,0.0823,0.0815,0.0808,0.0781,0.0771,0.0888,0.0888,0.0888,0,0.1337,0.1279,0.1273,0.123,0.1208,0.1215,0.1168,0.1146,0.1102,0.1086,0.1101,0.1017,0.0995,0.0927,0.0909,0.0892,0.0879,0.0898,0.0817,0.081,0.0803,0.0776,0.0766,0.0886,0.0886,0.0887,0.0887,0,0.1246,0.1206,0.1173,0.1132,0.1105,0.106,0.1048,0.1021,0.1021,0.1008,0.0951,0.0925,0.0882,0.0866,0.0865,0.0798,0.0807,0.0819,0.0845,0.0791,0.0766,0.0756,0.0883,0.0884,0.0885,0.0885,0,0,0.1164,0.1122,0.1109,0.1091,0.1055,0.1023,0.0979,0.0938,0.0915,0.0885,0.0847,0.079,0.0802,0.0778,0.0774,0.0743,0.0685,0.0759,0.0758,0.0745,0.0609,0.0599,0.0587,0.0689,0.0687,0.0685,0.0612,0,0.1095,0.1017,0.1011,0.094,0.0903,0.0909,0.087,0.0844,0.0831,0.0796,0.0782,0.0742,0.076,0.0746,0.0716,0.0698,0.0657,0.0704,0.0651,0.065,0.0659,0.0575,0.0564,0.0496,0.0602,0.06,0.0599,0,0.1003,0.0971,0.0897,0.0867,0.0851,0.0816,0.0778,0.0745,0.0715,0.0708,0.0682,0.0682,0.0635,0.0664,0.0598,0.063,0.0609,0.0597,0.0594,0.0588,0.062,0.0565,0.0474,0.0463,0.0584,0.0585,0.0586,0,0.0949,0.0888,0.0835,0.0819,0.0783,0.0758,0.0742,0.0714,0.069,0.0657,0.0641,0.0603,0.0581,0.0551,0.054,0.0562,0.0475,0.0503,0.0467,0.0467,0.0447,0.0448,0.035,0.0435,0.0435,0.0435,0.0436,0,0.0871,0.0825,0.0811,0.0778,0.0727,0.0721,0.067,0.0655,0.063,0.0594,0.0597,0.0563,0.0552,0.0516,0.0507,0.0454,0.0445,0.0437,0.0435,0.0436,0.0436,0.042,0.0424,0.0433,0.0433,0.0434,0.0434,0,0.0802,0.0791,0.0734,0.0705,0.0697,0.066,0.0635,0.0603,0.0591,0.0546,0.0535,0.0516,0.0473,0.046,0.0409,0.0403,0.0341,0.0344,0.0351,0.0351,0.0315,0.0318,0.0201,0.0185,0.0282,0.0281,0.0281,0,0.0753,0.0718,0.0685,0.0662,0.0645,0.0608,0.0584,0.0576,0.0551,0.0514,0.0487,0.0445,0.0411,0.0343,0.0324,0.0285,0.0286,0.0248,0.028,0.0282,0.0284,0.0286,0.0282,0.0242,0.0241,0.024,0.0239,0,0.0666,0.0662,0.0628,0.0592,0.0563,0.0534,0.0506,0.0486,0.0474,0.0446,0.0403,0.0377,0.0325,0.0284,0.0244,0.0226,0.023,0.023,0.0219,0.0219,0.0224,0.022,0.0334,0.0232,0.0233,0.0233,0.0233,0.0234,0.0604,0.0574,0.0546,0.0508,0.0486,0.046,0.0429,0.0414,0.0378,0.0336,0.0334,0.0287,0.0258,0.0205,0.0186,0.0149,0.0159,0.0144,0.014,0.0136,0.0133,0.0231,0.0141,0.0142,0.0142,0.0142,0.0142,0,0.0517,0.05,0.0465,0.0426,0.0395,0.0404,0.0373,0.0347,0.0306,0.0279,0.0246,0.0197,0.0157,0.0135,0.0095,0.007,0.007,0.0059,0.006,0.0056,0.0126,0.0139,0.0059,0.0059,0.0059,0.0059,0.0059,0.0059,0.0468,0.0416,0.0409,0.0346,0.0329,0.0285,0.0266,0.0242,0.022,0.0166,0.0133,0.0119,0.0094,0.0052,0.0015,0.001,-0.0006,-0.0018,-0.0023,0.0043,0.0051,0.0059,0.0071,-0.0021,-0.0021,-0.009,-0.009,-0.0091]},{"header":{"parameterUnit":"m.s-1","parameterCategory":1,"la1":30.2991,"la2":30.254,"lo1":-89.0895,"lo2":-89.0444,"dy":0.0017,"dx":0.0017,"nx":28,"ny":28,"refTime":"2025-08-23T09:00:00:Z","depth":0,"parameterNumber":3,"parameterNumberName":"V-component_of_WINDS"},"data":[0,0,0,0,0,0,0,0,0,0,0,0,0,0,0,0,0,0,0,0,0,0,0,0,0,0,0,0,0,0,0,0,0,0,0,0,0,0,0,0,0,0,0,0,0,0,0,0,0,0,0,0,0,0,0,0,0,0,-0.9951,-0.9951,0,-0.9939,-0.9939,-0.9939,-0.992,-0.992,-0.992,-0.992,-0.9907,-0.9907,-0.9907,0,0,0,0,0,0,0,0,0,0,0,0,0,-0.9958,-0.9958,-0.9952,-0.9951,-0.9951,-0.9939,-0.9939,-0.9939,-0.9921,-0.992,-0.992,-0.9919,-0.9907,-0.9907,-0.9907,0,0,0,0,0,0,0,0,0,0,0,0,0,-0.9952,-0.9958,-0.9952,-0.9941,-0.9939,-0.9939,-0.9939,-0.9939,-0.9921,-0.992,-0.992,-0.9919,-0.9907,-0.9907,-0.9907,-0.9917,0,0,-0.9907,-0.9907,0,0,0,0,0,0,0,0,-0.9952,-0.9951,-0.9942,-0.9941,-0.994,-0.9931,-0.9937,-0.9931,-0.9921,-0.9928,-0.992,-0.9919,-0.9915,-0.9915,-0.9913,-0.9916,-0.9916,-0.9907,-0.9907,-0.9907,-0.9907,0,0,0,0,0,0,0,-0.9953,-0.9952,-0.9947,-0.9942,-0.9941,-0.9936,-0.9935,-0.9936,-0.9925,-0.9927,-0.9926,-0.9925,-0.9915,-0.9914,-0.9913,-0.9915,-0.9907,-0.9907,-0.9907,-0.9907,-0.9924,-0.9925,0,0,0,0,0,0,-0.9955,-0.9952,-0.9947,-0.9946,-0.9945,-0.9936,-0.9935,-0.9934,-0.9924,-0.9922,-0.9925,-0.9924,-0.9914,-0.9913,-0.9913,-0.9922,-0.9907,-0.9907,-0.9907,-0.9924,-0.9924,-0.9925,0,0,0,0,0,0,-0.9955,-0.9954,-0.9948,-0.9949,-0.9948,-0.9937,-0.9937,-0.9934,-0.9933,-0.9923,-0.9921,-0.9926,-0.9913,-0.9913,-0.9916,-0.9922,-0.9907,-0.9907,-0.9923,-0.9924,-0.9925,-0.9943,0,0,0,0,0,0,-0.9955,-0.9955,-0.9958,-0.9949,-0.9948,-0.9951,-0.9937,-0.9934,-0.9933,-0.9931,-0.9923,-0.9921,-0.9913,-0.9916,-0.9916,-0.9921,-0.9907,-0.9923,-0.9923,-0.9924,-0.9942,-0.9944,-0.9946,0,0,0,0,0,-0.9956,-0.9964,-0.9959,-0.9958,-0.9952,-0.9951,-0.9951,-0.9941,-0.9934,-0.9937,-0.993,-0.9922,-0.9921,-0.9916,-0.9916,-0.9922,-0.9922,-0.9923,-0.9924,-0.9941,-0.9944,-0.9946,0,0,0,0,0,0,-0.9975,-0.9963,-0.9957,-0.9963,-0.9958,-0.9948,-0.9952,-0.9944,-0.9942,-0.994,-0.9928,-0.9927,-0.9931,-0.9927,-0.9921,-0.993,-0.992,-0.9921,-0.9933,-0.9936,-0.9938,-0.9939,-0.9907,0,0,0,0,0,-0.998,-0.998,-0.997,-0.9976,-0.9974,-0.9964,-0.9963,-0.9956,-0.9951,-0.9949,-0.9942,-0.9938,-0.9936,-0.9936,-0.9934,-0.9941,-0.9938,-0.9945,-0.9947,-0.9949,-0.995,-0.9953,-0.9955,-0.9928,-0.9928,-0.9928,0,0,-0.999,-0.9983,-0.9984,-0.998,-0.9975,-0.9976,-0.9962,-0.9963,-0.9964,-0.9949,-0.9951,-0.9946,-0.994,-0.9945,-0.9947,-0.9941,-0.9957,-0.995,-0.9952,-0.9952,-0.9954,-0.9956,-0.9959,-0.9929,-0.9929,-0.9929,0,0,-1.0008,-1.0004,-1.0008,-1.0004,-0.9997,-0.999,-0.9991,-0.9983,-0.9979,-0.9981,-0.9969,-0.9969,-0.9968,-0.9963,-0.9961,-0.9977,-0.9969,-0.9977,-0.9989,-0.9992,-0.9994,-0.9996,-1.0001,-1.0003,-0.9978,-0.9978,-0.9978,0,-1.0022,-1.0022,-1.0011,-1.0013,-1.0011,-0.9998,-1.0002,-0.9998,-0.9991,-0.999,-0.9984,-0.9981,-0.9976,-0.9979,-0.9983,-0.9982,-0.9983,-0.9978,-0.9994,-0.9996,-0.9998,-1.0002,-1.0004,-0.9979,-0.9979,-0.9979,-0.9979,0,-1.0039,-1.0039,-1.0043,-1.0037,-1.0035,-1.0038,-1.0028,-1.0027,-1.002,-1.0013,-1.0015,-1.0009,-1.0005,-1.0005,-0.9998,-1.0007,-1.0004,-0.9997,-0.9986,-1.0001,-1.0006,-1.0007,-0.9981,-0.998,-0.998,-0.998,0,0,-1.007,-1.0057,-1.0058,-1.0055,-1.0046,-1.0046,-1.0048,-1.0044,-1.0044,-1.004,-1.0041,-1.0039,-1.0032,-1.0029,-1.0022,-1.0024,-1.0036,-1.0016,-1.0016,-1.002,-1.0045,-1.0051,-1.0053,-1.0031,-1.0031,-1.0031,-1.0045,0,-1.0086,-1.0089,-1.0079,-1.0084,-1.0084,-1.0071,-1.0072,-1.0067,-1.0061,-1.0059,-1.0052,-1.0051,-1.0042,-1.004,-1.0042,-1.0035,-1.0041,-1.0033,-1.0031,-1.0031,-1.0033,-1.0055,-1.0061,-1.0075,-1.0047,-1.0047,-1.0047,0,-1.0106,-1.0103,-1.0108,-1.0098,-1.0098,-1.0099,-1.0094,-1.0094,-1.0087,-1.0082,-1.0079,-1.007,-1.0071,-1.0061,-1.0062,-1.0057,-1.0055,-1.0051,-1.0051,-1.0051,-1.004,-1.0055,-1.0079,-1.0081,-1.005,-1.005,-1.005,0,-1.0128,-1.0124,-1.0126,-1.0124,-1.0113,-1.0114,-1.011,-1.0103,-1.0101,-1.0096,-1.0095,-1.0091,-1.0089,-1.0086,-1.0076,-1.007,-1.0078,-1.0067,-1.0073,-1.0073,-1.0075,-1.0075,-1.01,-1.0075,-1.0075,-1.0075,-1.0075,0,-1.0147,-1.0151,-1.0136,-1.0137,-1.014,-1.0128,-1.0132,-1.0126,-1.012,-1.012,-1.0108,-1.0108,-1.0095,-1.0093,-1.0085,-1.0087,-1.0086,-1.0082,-1.008,-1.0083,-1.0083,-1.0082,-1.008,-1.0075,-1.0075,-1.0075,-1.0075,0,-1.0172,-1.0162,-1.0163,-1.0152,-1.015,-1.0153,-1.0143,-1.0144,-1.0137,-1.0136,-1.0136,-1.0124,-1.0122,-1.0111,-1.0106,-1.0101,-1.0105,-1.0101,-1.0107,-1.0106,-1.0112,-1.0111,-1.0136,-1.0138,-1.0112,-1.0113,-1.0113,0,-1.0185,-1.0187,-1.0176,-1.0175,-1.0171,-1.0169,-1.0167,-1.0156,-1.0154,-1.0146,-1.0147,-1.0144,-1.014,-1.0137,-1.0128,-1.0124,-1.0119,-1.0128,-1.0119,-1.0122,-1.0119,-1.0119,-1.0119,-1.013,-1.0131,-1.0131,-1.0131,0,-1.0209,-1.0203,-1.0201,-1.0196,-1.0194,-1.019,-1.0185,-1.0184,-1.0171,-1.017,-1.0167,-1.0164,-1.0159,-1.0155,-1.0149,-1.0144,-1.0135,-1.0134,-1.0135,-1.0138,-1.0142,-1.0139,-1.0112,-1.0134,-1.0133,-1.0133,-1.0133,-1.0133,-1.0228,-1.0229,-1.0221,-1.0218,-1.0213,-1.0209,-1.0208,-1.0201,-1.0198,-1.0193,-1.0186,-1.0184,-1.0176,-1.0168,-1.0163,-1.0161,-1.0156,-1.0158,-1.0158,-1.0159,-1.016,-1.0142,-1.016,-1.016,-1.016,-1.016,-1.016,0,-1.0251,-1.0245,-1.0242,-1.0236,-1.0233,-1.0225,-1.0219,-1.0217,-1.0215,-1.0209,-1.0206,-1.0202,-1.0198,-1.0189,-1.0184,-1.0184,-1.018,-1.0183,-1.0183,-1.0182,-1.0165,-1.0165,-1.0187,-1.0187,-1.0187,-1.0187,-1.0187,-1.0187,-1.0262,-1.0264,-1.0257,-1.0256,-1.025,-1.0247,-1.0245,-1.024,-1.0235,-1.0231,-1.0228,-1.0222,-1.0214,-1.0208,-1.0204,-1.0202,-1.02,-1.0205,-1.0201,-1.0186,-1.0183,-1.0181,-1.018,-1.0205,-1.0205,-1.0218,-1.0218,-1.0218]}]]